Regional Weather Roundup
Issued by NWS Cleveland, OH

Home | Current Version | Previous Version | Graphics & Text | Print | Product List | Glossary On
Versions: 1 2 3 4 5 6 7 8 9 10 11 12 13 14 15 16 17 18 19 20 21 22 23 24 25 26 27 28 29 30 31 32 33 34 35 36 37 38 39 40 41 42 43 44 45 46 47 48 49 50
000
ASUS41 KCLE 212110
RWRCLE
OHIO REGIONAL WEATHER ROUNDUP
NATIONAL WEATHER SERVICE CLEVELAND, OH
500 PM EDT SAT OCT 21 2017

NOTE: "FAIR" INDICATES FEW OR NO CLOUDS BELOW 12,000 FEET WITH NO
SIGNIFICANT WEATHER AND/OR OBSTRUCTIONS TO VISIBILITY.

OHZ001>008-015>018-024>027-034-035-043-044-212200-
   NORTHWEST OHIO

CITY           SKY/WX    TMP DP  RH WIND       PRES   REMARKS
DEFIANCE       PTSUNNY   75  50  41 S9        30.15F
FINDLAY        CLOUDY    78  49  35 S12       30.15F
TOLEDO EXPRESS CLOUDY    74  54  49 S3        30.15S
TOLEDO EXEC    CLOUDY    73  55  53 S7        30.16F
LIMA           MOSUNNY   75  45  34 S12       30.18S
$$

OHZ009>014-019>023-028>033-038-089-212200-
   NORTHEAST OHIO

CITY           SKY/WX    TMP DP  RH WIND       PRES   REMARKS
CLE-HOPKINS    PTSUNNY   74  47  38 S8        30.23S
CLE-LAKEFRONT  MOSUNNY   73  47  39 SE7       30.20S
CUY CO. ARPT   PTSUNNY   73  45  35 S6        30.23S
LORAIN-ELYRIA  MOSUNNY   71  47  42 SE6       30.21S
ASHTABULA      MOSUNNY   71  47  42 S6        30.24S
AKRON-CANTON   CLOUDY    70  48  45 S8        30.24F
WOOSTER        MOSUNNY   71  48  43 S5        30.24S
MANSFIELD      CLOUDY    72  49  44 SE9       30.23S
YOUNGSTOWN     PTSUNNY   73  49  42 S6        30.25S
$$

OHZ042-051>053-060>062-070>072-077>081-212200-
  SOUTHWEST OHIO

CITY           SKY/WX    TMP DP  RH WIND       PRES   REMARKS
CINC-COVINGTON CLOUDY    70  53  54 S6        30.21F
CINC-LUNKEN    MOSUNNY   73  54  51 CALM      30.21F
HAMILTON       SUNNY     74  48  39 S7        30.22S
DAYTON         PTSUNNY   71  48  43 S12       30.22S
WRIGHT-PAT AFB PTSUNNY   73  46  37 S12       30.21S
DAYTON GENERAL MOSUNNY   70  47  43 S9        30.21S
WILMINGTON     PTSUNNY   72  51  47 S10       30.22S HAZE
$$

OHZ036-037-039>041-045>050-054>059-063>069-073>076-082>088-212200-
  CENTRAL AND SOUTHEAST OHIO

CITY           SKY/WX    TMP DP  RH WIND       PRES   REMARKS
COLUMBUS       CLOUDY    73  53  49 SE8       30.21F
OSU AIRPORT    CLOUDY    72  56  57 SE8       30.21F
BOLTON FIELD   SUNNY     73  48  40 S6        30.22F
RICKENBACK AFB CLOUDY    72  53  51 S8        30.21F
NEWARK         CLOUDY    73  51  46 SE5       30.22F
MARION         CLOUDY    73  50  44 S10       30.20F
LANCASTER      CLOUDY    71  53  52 S6        30.23F
ZANESVILLE     CLOUDY    72  53  51 S5        30.25R
NEW PHILLY     NOT AVBL
$$




USA.gov is the U.S. government's official web portal to all federal, state and local government web resources and services.